EW3370 Weather Reports


Display with metric or nautical units.
time (UTC)temp
F
wind
direction
speed
MPH
gust
MPH
rain 1hr
in
rain 24hr
in
rain mn
in
humidity
%
barometer
mb
20260906205530 82 49 10.0 20.0 0.00 0.00 0.00 71 1011.2
20260906205056 82 51 10.0 21.0 0.00 0.00 0.00 71 1011.2
20260906204519 81 72 12.0 22.0 0.00 0.00 0.00 71 1011.3
20260906204024 81 10 11.0 22.0 0.00 0.00 0.00 71 1011.4
20260906203529 81 355 10.0 22.0 0.00 0.00 0.00 71 1011.4
20260906203035 81 347 10.0 17.0 0.00 0.00 0.00 72 1011.7
20260906202543 80 348 11.0 21.0 0.00 0.00 0.00 71 1011.6
20260906202027 80 53 12.0 21.0 0.00 0.00 0.00 72 1011.7
20260906201535 80 34 12.0 22.0 0.00 0.00 0.00 71 1011.8
20260906201016 80 32 13.0 22.0 0.00 0.00 0.00 71 1011.8
20260906200521 80 62 9.0 22.0 0.00 0.00 0.00 72 1011.9
20260906200025 79 46 12.0 22.0 0.00 0.00 0.00 72 1012.0
20260906195535 79 49 11.0 19.0 0.00 0.00 0.00 73 1012.1
20260906195021 78 24 12.0 20.0 0.00 0.00 0.00 73 1012.2
20260906194526 78 43 11.0 20.0 0.00 0.00 0.00 73 1012.3
20260906194034 78 47 11.0 20.0 0.00 0.00 0.00 73 1012.4
20260906193524 78 15 9.0 17.0 0.00 0.00 0.00 73 1012.4
20260906193038 78 29 10.0 17.0 0.00 0.00 0.00 73 1012.6
20260906192544 78 13 7.0 17.0 0.00 0.00 0.00 74 1012.6
20260906192027 77 9 7.0 12.0 0.00 0.00 0.00 74 1012.7
20260906191531 77 26 6.0 15.0 0.00 0.00 0.00 74 1012.8
20260906191035 77 55 8.0 15.0 0.00 0.00 0.00 74 1012.8
20260906190543 77 48 9.0 13.0 0.00 0.00 0.00 74 1012.8
20260906190025 76 79 6.0 13.0 0.00 0.00 0.00 75 1012.8
20260906185528 76 350 7.0 13.0 0.00 0.00 0.00 75 1012.8
20260906185032 76 83 9.0 14.0 0.00 0.00 0.00 75 1012.7
20260906184543 76 84 9.0 14.0 0.00 0.00 0.00 76 1012.7
20260906184025 76 72 7.0 10.0 0.00 0.00 0.00 77 1012.7
20260906183532 76 74 5.0 10.0 0.00 0.00 0.00 78 1012.8
20260906183033 76 52 4.0 6.0 0.00 0.00 0.00 80 1012.9
20260906182601 76 81 3.0 5.0 0.00 0.00 0.00 80 1012.9
20260906182028 76 84 3.0 6.0 0.00 0.00 0.00 79 1013.0
20260906181528 75 38 2.0 6.0 0.00 0.00 0.00 79 1013.0
20260906181055 75 42 3.0 6.0 0.00 0.00 0.00 78 1013.0
20260906180517 75 20 3.0 5.0 0.00 0.00 0.00 78 1013.0
20260906180024 75 35 2.0 6.0 0.00 0.00 0.00 79 1013.1
20260906175527 75 331 2.0 6.0 0.00 0.00 0.00 79 1013.1
20260906175032 75 360 3.0 7.0 0.00 0.00 0.00 79 1013.1
20260906174539 75 311 3.0 7.0 0.00 0.00 0.00 79 1013.1
20260906174038 75 348 1.0 6.0 0.00 0.00 0.00 81 1013.1
20260906173547 75 349 2.0 7.0 0.00 0.00 0.00 81 1013.1
20260906173029 74 346 2.0 7.0 0.00 0.00 0.00 81 1013.0
20260906172536 74 293 3.0 7.0 0.00 0.00 0.00 80 1013.0
20260906172020 74 315 2.0 7.0 0.00 0.00 0.00 81 1013.1
20260906171524 75 293 3.0 7.0 0.00 0.00 0.00 80 1013.0
20260906171051 75 290 2.0 7.0 0.00 0.00 0.00 81 1013.0
20260906170555 75 281 3.0 7.0 0.00 0.00 0.00 80 1013.0
20260906170020 75 290 1.0 5.0 0.00 0.00 0.00 79 1013.0
20260906165527 75 286 2.0 5.0 0.00 0.00 0.00 77 1013.0
20260906165035 75 257 1.0 5.0 0.00 0.00 0.00 78 1012.9
20260906164525 76 265 2.0 6.0 0.00 0.00 0.00 77 1012.9
20260906164032 76 342 0.0 6.0 0.00 0.00 0.00 76 1012.8
20260906163541 76 347 3.0 6.0 0.00 0.00 0.00 75 1012.6
20260906163046 75 24 3.0 6.0 0.00 0.00 0.00 75 1012.6
20260906162534 75 31 2.0 5.0 0.00 0.00 0.00 76 1012.5
20260906162021 75 32 2.0 7.0 0.00 0.00 0.00 76 1012.4
20260906161523 75 44 4.0 7.0 0.00 0.00 0.00 75 1012.3
20260906161027 75 51 3.0 5.0 0.00 0.00 0.00 75 1012.3
20260906160534 75 45 2.0 4.0 0.00 0.00 0.00 76 1012.2
20260906160028 75 34 1.0 5.0 0.00 0.00 0.00 76 1012.2
20260906155533 75 35 1.0 5.0 0.00 0.00 0.00 75 1012.2
20260906155038 74 35 3.0 5.0 0.00 0.00 0.00 74 1012.1
20260906154547 74 51 2.0 4.0 0.00 0.00 0.00 74 1012.2
20260906154037 74 53 2.0 5.0 0.00 0.00 0.00 75 1012.1
20260906153525 74 59 2.0 5.0 0.00 0.00 0.00 75 1012.1
20260906153029 74 46 1.0 5.0 0.00 0.00 0.00 75 1012.1
20260906152556 74 40 0.0 4.0 0.00 0.00 0.00 75 1012.1
20260906152020 74 41 1.0 4.0 0.00 0.00 0.00 75 1012.0
20260906151526 74 42 0.0 0.0 0.00 0.00 0.00 76 1012.0
20260906151027 73 324 0.0 0.0 0.00 0.00 0.00 75 1012.0
20260906150535 73 323 0.0 0.0 0.00 0.00 0.00 76 1012.0
20260906150040 73 322 0.0 0.0 0.00 0.00 0.00 76 1012.0
20260906145526 73 321 0.0 0.0 0.00 0.00 0.00 76 1011.9
20260906145037 73 322 0.0 1.0 0.00 0.00 0.00 77 1011.9
20260906144528 73 323 0.0 4.0 0.00 0.00 0.00 76 1011.9
20260906144024 73 324 0.0 4.0 0.00 0.00 0.00 76 1011.8
20260906143521 73 324 0.0 6.0 0.00 0.00 0.00 76 1011.9
20260906143024 73 351 0.0 6.0 0.00 0.00 0.00 75 1011.9
20260906142529 73 340 3.0 5.0 0.00 0.00 0.00 75 1011.9
20260906142028 73 303 1.0 6.0 0.00 0.00 0.00 75 1011.8
20260906141529 73 337 1.0 6.0 0.00 0.00 0.00 75 1011.7
20260906141032 73 306 1.0 5.0 0.00 0.00 0.00 78 1011.7
20260906140532 73 346 1.0 6.0 0.00 0.00 0.00 78 1011.6
20260906140049 73 310 3.0 6.0 0.00 0.00 0.00 79 1011.5
20260906135540 73 285 2.0 5.0 0.00 0.00 0.00 80 1011.5
20260906135059 73 299 1.0 5.0 0.00 0.00 0.00 79 1011.6
20260906134553 73 317 1.0 5.0 0.00 0.00 0.00 76 1011.5
20260906134029 72 351 0.0 2.0 0.00 0.00 0.00 72 1011.4
20260906133543 72 351 0.0 2.0 0.00 0.00 0.00 69 1011.4
20260906133026 72 351 0.0 5.0 0.00 0.00 0.00 68 1011.3
20260906132556 72 351 1.0 5.0 0.00 0.00 0.00 70 1011.1
20260906132030 73 351 1.0 6.0 0.00 0.00 0.00 71 1011.1
20260906131527 73 29 2.0 6.0 0.00 0.00 0.00 70 1011.0
20260906131039 73 21 4.0 8.0 0.00 0.00 0.00 70 1010.9
20260906130522 73 355 3.0 8.0 0.00 0.00 0.00 71 1010.8
20260906130023 73 46 3.0 6.0 0.00 0.00 0.00 71 1010.6
20260906125527 73 43 3.0 6.0 0.00 0.00 0.00 70 1010.6
20260906125028 73 51 4.0 9.0 0.00 0.00 0.00 69 1010.6
20260906124527 73 49 4.0 9.0 0.00 0.00 0.00 69 1010.6
20260906124053 72 44 6.0 9.0 0.00 0.00 0.00 69 1010.6
20260906123552 72 59 5.0 8.0 0.00 0.00 0.00 70 1010.6
20260906123028 72 60 4.0 8.0 0.00 0.00 0.00 69 1010.5
20260906122527 72 48 4.0 8.0 0.00 0.00 0.00 70 1010.5
20260906122024 72 74 3.0 7.0 0.00 0.00 0.00 70 1010.6
20260906121528 72 70 3.0 7.0 0.00 0.00 0.00 70 1010.7
20260906121030 72 57 4.0 9.0 0.00 0.00 0.00 70 1010.7
20260906120526 72 86 4.0 9.0 0.00 0.00 0.00 70 1010.5
20260906120028 72 69 4.0 9.0 0.00 0.00 0.00 69 1010.7
20260906115555 72 42 3.0 6.0 0.00 0.00 0.00 69 1010.7
20260906115022 72 63 3.0 6.0 0.00 0.00 0.00 69 1010.8
20260906114547 72 88 1.0 8.0 0.00 0.00 0.00 70 1010.8
20260906114031 72 88 1.0 9.0 0.00 0.00 0.00 72 1010.8
20260906113517 72 59 5.0 9.0 0.00 0.00 0.00 74 1010.6
20260906113023 72 65 4.0 9.0 0.00 0.00 0.00 74 1010.6
20260906112524 72 53 5.0 8.0 0.00 0.00 0.00 73 1010.7
20260906112028 72 64 2.0 8.0 0.00 0.00 0.00 75 1010.8
20260906111536 72 67 4.0 8.0 0.00 0.00 0.00 76 1010.8
20260906111020 72 54 2.0 6.0 0.00 0.00 0.00 79 1010.9
20260906110548 72 54 2.0 6.0 0.00 0.00 0.00 79 1011.0
20260906110036 72 53 3.0 6.0 0.00 0.00 0.00 81 1010.8
20260906105519 72 50 3.0 4.0 0.00 0.00 0.00 83 1010.9
20260906105029 73 52 3.0 4.0 0.00 0.00 0.00 84 1010.9
20260906104536 73 345 2.0 3.0 0.00 0.00 0.00 85 1010.9
20260906104041 73 337 2.0 3.0 0.00 0.00 0.00 85 1011.0
20260906103524 73 337 2.0 3.0 0.00 0.00 0.00 86 1011.0
20260906103028 73 336 1.0 3.0 0.00 0.00 0.00 86 1011.0
20260906102530 73 336 0.0 4.0 0.00 0.00 0.00 88 1011.0
20260906102035 73 337 2.0 4.0 0.00 0.00 0.00 88 1010.9
20260906101518 73 336 2.0 4.0 0.00 0.00 0.00 90 1010.9
20260906101024 73 267 1.0 2.0 0.00 0.00 0.00 90 1010.9
20260906100526 73 268 0.0 2.0 0.00 0.00 0.00 90 1010.9
20260906100036 73 268 1.0 2.0 0.00 0.00 0.00 90 1011.0
20260906095519 73 266 0.0 2.0 0.00 0.00 0.00 90 1011.0
20260906095023 73 266 0.0 2.0 0.00 0.00 0.00 90 1010.9
20260906094530 73 266 0.0 2.0 0.00 0.00 0.00 90 1010.9
20260906094038 73 266 0.0 0.0 0.00 0.00 0.00 90 1011.0
20260906093522 73 266 0.0 1.0 0.00 0.00 0.00 90 1011.0
20260906093026 73 266 0.0 1.0 0.00 0.00 0.00 90 1011.1
20260906092535 73 266 0.0 1.0 0.00 0.00 0.00 90 1011.0
20260906092019 73 265 0.0 0.0 0.00 0.00 0.00 90 1011.1
20260906091519 73 265 0.0 0.0 0.00 0.00 0.00 90 1011.1
20260906091020 73 266 0.0 0.0 0.00 0.00 0.00 89 1011.1
20260906090524 73 266 0.0 1.0 0.00 0.00 0.00 90 1011.1
20260906090027 74 266 0.0 1.0 0.00 0.00 0.00 90 1011.2
20260906085534 73 267 0.0 1.0 0.00 0.00 0.00 90 1011.2
20260906085022 73 267 0.0 1.0 0.00 0.00 0.00 90 1011.3
20260906084528 73 267 0.0 1.0 0.00 0.00 0.00 90 1011.3
20260906084055 73 267 0.0 1.0 0.00 0.00 0.00 89 1011.4
20260906083521 73 268 0.0 1.0 0.00 0.00 0.00 89 1011.4
20260906083023 73 269 0.0 0.0 0.00 0.00 0.00 88 1011.4
20260906082524 73 269 0.0 0.0 0.00 0.00 0.00 88 1011.4
20260906082027 73 269 0.0 0.0 0.00 0.00 0.00 88 1011.4
20260906081532 73 269 0.0 0.0 0.00 0.00 0.00 88 1011.4
20260906081035 73 269 0.0 0.0 0.00 0.00 0.00 88 1011.3
20260906080519 73 269 0.0 0.0 0.00 0.00 0.00 88 1011.4
20260906080026 73 269 0.0 1.0 0.00 0.00 0.00 88 1011.3
20260906075553 73 269 0.0 1.0 0.00 0.00 0.00 88 1011.3
20260906075038 73 269 0.0 1.0 0.00 0.00 0.00 88 1011.4
20260906074543 73 269 0.0 1.0 0.00 0.00 0.00 88 1011.4
20260906074028 73 269 0.0 0.0 0.00 0.00 0.00 88 1011.5
20260906073538 73 269 0.0 0.0 0.00 0.00 0.00 88 1011.4
20260906073019 73 269 0.0 0.0 0.00 0.00 0.00 88 1011.4
20260906072522 73 269 0.0 0.0 0.00 0.00 0.00 88 1011.2
20260906072023 73 269 0.0 0.0 0.00 0.00 0.00 88 1011.4
20260906071526 73 269 0.0 0.0 0.00 0.00 0.00 88 1011.4
20260906071032 73 269 0.0 0.0 0.00 0.00 0.00 88 1011.5
20260906070536 73 269 0.0 0.0 0.00 0.00 0.00 88 1011.4
20260906070019 73 270 0.0 0.0 0.00 0.00 0.00 87 1011.3
20260906065527 73 270 0.0 0.0 0.00 0.00 0.00 87 1011.3
20260906065032 73 270 0.0 0.0 0.00 0.00 0.00 87 1011.3
20260906064542 73 270 0.0 0.0 0.00 0.00 0.00 87 1011.4
20260906064025 74 270 0.0 0.0 0.00 0.00 0.00 87 1011.5
20260906063527 74 270 0.0 1.0 0.00 0.00 0.00 87 1011.3
20260906063030 74 270 0.0 1.0 0.00 0.00 0.00 87 1011.3
20260906062536 74 271 0.0 1.0 0.00 0.00 0.00 87 1011.4
20260906062019 74 270 0.0 3.0 0.00 0.00 0.00 87 1011.3
20260906061550 74 270 1.0 3.0 0.00 0.00 0.00 87 1011.2
20260906061033 74 270 0.0 4.0 0.00 0.00 0.00 87 1011.2
20260906060519 74 271 0.0 4.0 0.00 0.00 0.00 87 1011.3
20260906060021 74 289 1.0 7.0 0.00 0.00 0.00 87 1011.3
20260906055522 74 289 2.0 7.0 0.00 0.00 0.00 87 1011.4
20260906055029 74 231 2.0 5.0 0.00 0.00 0.00 87 1011.4
20260906054542 74 270 2.0 4.0 0.00 0.00 0.00 87 1011.3
20260906054025 74 271 1.0 4.0 0.00 0.00 0.00 87 1011.4
20260906053531 74 242 2.0 4.0 0.00 0.00 0.00 87 1011.4
20260906053058 74 240 0.0 4.0 0.00 0.00 0.00 87 1011.5
20260906052521 74 226 2.0 4.0 0.00 0.00 0.00 87 1011.5
20260906052023 74 275 0.0 0.0 0.00 0.00 0.00 87 1011.4
20260906051528 74 286 0.0 5.0 0.00 0.00 0.00 87 1011.4
20260906051035 74 242 0.0 5.0 0.00 0.00 0.00 87 1011.4
20260906050519 74 273 0.0 0.0 0.00 0.00 0.00 86 1011.4
20260906050025 74 274 0.0 0.0 0.00 0.00 0.00 86 1011.4
20260906045528 74 274 0.0 0.0 0.00 0.00 0.00 86 1011.4
20260906045019 74 275 0.0 0.0 0.00 0.00 0.00 86 1011.5
20260906044524 74 275 0.0 0.0 0.00 0.00 0.00 85 1011.6
20260906044024 74 275 0.0 0.0 0.00 0.00 0.00 85 1011.6
20260906043530 74 275 0.0 0.0 0.00 0.00 0.00 84 1011.6
20260906043040 75 276 0.0 0.0 0.00 0.00 0.00 83 1011.6
20260906042523 75 277 0.0 0.0 0.00 0.00 0.00 83 1011.5
20260906042024 75 277 0.0 0.0 0.00 0.00 0.00 83 1011.4
20260906041527 75 277 0.0 0.0 0.00 0.00 0.00 82 1011.4
20260906041030 75 286 0.0 0.0 0.00 0.00 0.00 82 1011.3
20260906040558 75 286 0.0 0.0 0.00 0.00 0.00 81 1011.3
20260906040044 75 286 0.0 0.0 0.00 0.00 0.00 81 1011.3
20260906035534 75 286 0.0 0.0 0.00 0.00 0.00 81 1011.3
20260906035048 75 286 0.0 0.0 0.00 0.00 0.00 81 1011.2
20260906034529 75 286 0.0 0.0 0.00 0.00 0.00 81 1011.3
20260906034039 75 288 0.0 0.0 0.00 0.00 0.00 80 1011.3
20260906033519 75 305 0.0 0.0 0.00 0.00 0.00 80 1011.2
20260906033025 75 323 0.0 0.0 0.00 0.00 0.00 80 1011.2
20260906032533 74 331 0.0 0.0 0.00 0.00 0.00 80 1011.1
20260906032035 75 286 0.0 0.0 0.00 0.00 0.00 81 1011.1
20260906031520 75 268 0.0 0.0 0.00 0.00 0.00 83 1011.1
20260906031024 75 268 0.0 0.0 0.00 0.00 0.00 82 1011.0
20260906030548 75 268 0.0 0.0 0.00 0.00 0.00 82 1011.0
20260906030030 75 269 0.0 0.0 0.00 0.00 0.00 82 1011.1
20260906025534 75 262 0.0 2.0 0.00 0.00 0.00 82 1011.0
20260906025037 75 276 0.0 8.0 0.00 0.00 0.00 83 1011.0
20260906024523 75 288 1.0 8.0 0.00 0.00 0.00 83 1011.0
20260906024029 75 270 2.0 6.0 0.00 0.00 0.00 81 1011.1
20260906023539 75 279 0.0 6.0 0.00 0.00 0.00 82 1011.0
20260906023023 75 271 3.0 6.0 0.00 0.00 0.00 83 1011.0
20260906022526 75 268 1.0 6.0 0.00 0.00 0.00 83 1011.0
20260906022038 75 305 1.0 6.0 0.00 0.00 0.00 83 1011.0
20260906021524 75 288 4.0 6.0 0.00 0.00 0.00 82 1011.0
20260906021029 75 265 2.0 6.0 0.00 0.00 0.00 82 1011.0
20260906020538 75 254 1.0 7.0 0.00 0.00 0.00 82 1010.9
20260906020024 76 296 2.0 7.0 0.00 0.00 0.00 81 1011.0
20260906015530 76 281 2.0 6.0 0.00 0.00 0.00 81 1010.9
20260906015037 76 273 2.0 6.0 0.00 0.00 0.00 81 1011.0
20260906014520 76 272 2.0 6.0 0.00 0.00 0.00 80 1011.0
20260906014051 76 240 2.0 7.0 0.00 0.00 0.00 80 1010.9
20260906013533 77 232 2.0 8.0 0.00 0.00 0.00 79 1011.0
20260906013021 77 233 2.0 8.0 0.00 0.00 0.00 78 1011.1
20260906012526 77 279 3.0 8.0 0.00 0.00 0.00 77 1011.1
20260906012030 77 265 2.0 8.0 0.00 0.00 0.00 77 1011.1
20260906011557 77 250 4.0 8.0 0.00 0.00 0.00 75 1011.1
20260906011021 78 275 2.0 7.0 0.00 0.00 0.00 76 1011.0
20260906010526 78 277 3.0 7.0 0.00 0.00 0.00 75 1011.0
20260906010032 79 246 3.0 8.0 0.00 0.00 0.00 74 1011.1
20260906005518 80 232 3.0 8.0 0.00 0.00 0.00 70 1011.0
20260906005022 80 271 2.0 7.0 0.00 0.00 0.00 70 1011.0
20260906004526 80 289 2.0 7.0 0.00 0.00 0.00 71 1011.0
20260906004017 80 265 1.0 8.0 0.00 0.00 0.00 71 1011.0
20260906003529 80 275 2.0 8.0 0.00 0.00 0.00 70 1011.0
20260906003036 80 254 3.0 8.0 0.00 0.00 0.00 70 1010.9
20260906002519 80 290 1.0 8.0 0.00 0.00 0.00 69 1010.9
20260906002021 80 261 5.0 8.0 0.00 0.00 0.00 67 1010.9
20260906001524 81 284 4.0 8.0 0.00 0.00 0.00 68 1011.0
20260906001028 81 227 3.0 10.0 0.00 0.00 0.00 69 1010.9
20260906000555 81 270 2.0 10.0 0.00 0.00 0.00 66 1010.9
20260906000039 81 261 5.0 9.0 0.00 0.00 0.00 65 1010.9
20260905235524 81 281 4.0 9.0 0.00 0.00 0.00 64 1011.0
20260905235027 81 251 3.0 9.0 0.00 0.00 0.00 67 1010.9
20260905234530 81 269 5.0 10.0 0.00 0.00 0.00 64 1011.0
20260905234037 81 289 4.0 10.0 0.00 0.00 0.00 67 1011.0
20260905233524 82 259 2.0 11.0 0.00 0.00 0.00 66 1011.0
20260905233027 82 220 3.0 11.0 0.00 0.00 0.00 65 1010.9
20260905232533 81 276 2.0 11.0 0.00 0.00 0.00 65 1010.9
20260905232039 82 292 5.0 12.0 0.00 0.00 0.00 66 1010.9
20260905231522 81 294 3.0 12.0 0.00 0.00 0.00 67 1011.0
20260905231027 82 295 4.0 10.0 0.00 0.00 0.00 66 1011.0
20260905230528 81 347 4.0 10.0 0.00 0.00 0.00 69 1011.0
20260905230035 81 275 5.0 10.0 0.00 0.00 0.00 69 1011.1
20260905225522 81 217 2.0 11.0 0.00 0.00 0.00 70 1011.1
20260905225025 81 250 6.0 11.0 0.00 0.00 0.00 70 1011.2
20260905224554 82 250 4.0 9.0 0.00 0.00 0.00 70 1011.3
20260905224017 82 294 4.0 9.0 0.00 0.00 0.00 70 1011.3
20260905223528 82 264 4.0 9.0 0.00 0.00 0.00 69 1011.3
20260905223038 82 254 5.0 9.0 0.00 0.00 0.00 69 1011.4
20260905222521 82 276 4.0 8.0 0.00 0.00 0.00 68 1011.4
20260905222023 83 253 4.0 8.0 0.00 0.00 0.00 68 1011.4
20260905221548 82 261 3.0 8.0 0.00 0.00 0.00 68 1011.5
20260905221035 82 246 2.0 8.0 0.00 0.00 0.00 68 1011.5
20260905220520 82 222 3.0 9.0 0.00 0.00 0.00 67 1011.5
20260905220025 83 224 4.0 9.0 0.00 0.00 0.00 65 1011.6
20260905215529 83 241 3.0 7.0 0.00 0.00 0.00 66 1011.6
20260905215035 83 281 3.0 9.0 0.00 0.00 0.00 63 1011.7
20260905214523 83 308 5.0 9.0 0.00 0.00 0.00 65 1011.7
20260905214030 83 284 5.0 9.0 0.00 0.00 0.00 60 1011.7
20260905213538 83 275 5.0 9.0 0.00 0.00 0.00 60 1011.8
20260905213020 83 329 3.0 9.0 0.00 0.00 0.00 60 1011.8
20260905212548 83 268 4.0 9.0 0.00 0.00 0.00 63 1011.9
20260905212054 82 277 4.0 9.0 0.00 0.00 0.00 62 1012.0
20260905211517 82 265 1.0 9.0 0.00 0.00 0.00 63 1012.0
20260905211048 82 265 4.0 10.0 0.00 0.00 0.00 62 1012.0
20260905210528 82 284 5.0 10.0 0.00 0.00 0.00 64 1012.0
20260905210032 81 269 4.0 8.0 0.00 0.00 0.00 63 1012.1